Date,Houle significative (H1/3 en m),Houle (Hmax en m),Période (TH1/3 en s),Vitesse de vent (Vvmoy en m),Vitesse de vent (Vvmax en m),Direction du vent (Dvmoy en °),Pression atmosphérique (hPa),Température de l'eau (°C),Température de l'air (°C)
"2024-06-11 03:50:00",0.2,0.4,3.9,5.1,8.5,29,1017,18.1,16.1
"2024-06-11 03:40:00",0.2,0.4,3.8,4.1,8,358,1017,18.1,16.2
"2024-06-11 03:30:00",0.2,0.4,3.8,5.3,9.1,351,1017,18.1,16.1
"2024-06-11 03:20:00",0.2,0.4,3.9,5.8,9.7,352,1017,18.2,16.2
"2024-06-11 03:10:00",0.2,0.4,4,4.7,8.7,7,1017,18.2,16.4
"2024-06-11 03:00:00",0.2,0.4,4,4.2,7,2,1017,18.2,16.4
"2024-06-11 02:50:00",0.2,0.4,4,5.5,10.5,15,1017,18.1,16.5
"2024-06-11 02:40:00",0.3,0.4,3.9,4.6,9.5,21,1017,18.1,16.5
"2024-06-11 02:30:00",0.3,0.4,4,4.2,7.6,15,1017,18.1,16.7
"2024-06-11 02:20:00",0.2,0.4,4.1,4.9,8.4,350,1017,18.1,16.6
"2024-06-11 02:10:00",0.2,0.4,4.3,4.2,7.6,333,1018,18.1,16.6
"2024-06-11 02:00:00",0.2,0.4,4.4,3.9,6.7,331,1018,18.1,16.7
"2024-06-11 01:50:00",0.2,0.4,4.3,3.5,7.3,313,1018,18,16.8
"2024-06-11 01:40:00",0.2,0.3,4.3,3.7,7,329,1018,18,16.8
"2024-06-11 01:30:00",0.2,0.3,4.3,3.3,6.1,314,1018,18,17
"2024-06-11 01:20:00",0.2,0.3,4.4,3.4,6,318,1018,17.8,16.9
"2024-06-11 01:10:00",0.2,0.3,4.5,2.3,4.9,309,1018,17.8,17.1
"2024-06-11 01:00:00",0.2,0.2,4.6,2.6,5.5,302,1018,17.8,17
"2024-06-11 00:50:00",0.2,0.2,4.4,2.5,5.8,304,1018,17.5,17
"2024-06-11 00:40:00",0.2,0.3,4.5,3.3,5.7,316,1018,17.5,16.9
"2024-06-11 00:30:00",0.2,0.3,4.6,3.1,5.9,312,1018,17.5,16.9
"2024-06-11 00:20:00",0.2,0.3,4.6,2.5,6.6,312,1018,17.3,17
"2024-06-11 00:10:00",0.2,0.3,4.6,3.2,6,315,1018,17.3,16.9
"2024-06-11 00:00:00",0.2,0.3,4.5,4.2,7,315,1018,17.3,16.9
"2024-06-10 23:50:00",0.2,0.3,4.5,4.4,6.6,332,1018,17.1,16.9
"2024-06-10 23:40:00",0.2,0.3,4.6,2.8,6.6,335,1018,17.1,17
"2024-06-10 23:30:00",0.2,0.4,4.6,3.8,6.7,310,1019,17.1,17
"2024-06-10 23:20:00",0.2,0.4,4.7,2.8,5.8,324,1019,17,17.1
"2024-06-10 23:10:00",0.2,0.4,4.8,2.7,5.9,322,1019,17,17.1
"2024-06-10 23:00:00",0.2,0.4,4.7,2.8,6.4,324,1019,17,17.2
"2024-06-10 22:50:00",0.2,0.4,4.7,3.4,6.7,327,1019,17.2,17.1
"2024-06-10 22:40:00",0.3,0.5,4.8,2.5,6,316,1019,17.2,17.1
"2024-06-10 22:30:00",0.3,0.5,4.9,2.2,5.5,309,1019,17.2,17.1
"2024-06-10 22:20:00",0.3,0.6,5,2.9,6.5,292,1019,17.4,17
"2024-06-10 22:10:00",0.3,0.6,5,4.3,9.3,294,1018,17.4,16.9
"2024-06-10 22:00:00",0.3,0.6,5.1,3.6,6.4,313,1019,17.4,16.9
"2024-06-10 21:50:00",0.3,0.5,5,3.4,7.3,309,1019,17.1,16.9
"2024-06-10 21:40:00",0.3,0.5,5.1,3,6.5,315,1019,17.1,16.8
"2024-06-10 21:30:00",0.3,0.5,5.1,3,6.2,318,1019,17.1,16.9
"2024-06-10 21:20:00",0.3,0.4,5,4.4,7.7,334,1018,18,16.9
"2024-06-10 21:10:00",0.2,0.4,4.8,3.9,7.3,337,1018,18,16.9
"2024-06-10 21:00:00",0.2,0.4,4.5,3.6,8.8,315,1019,18,17.1
"2024-06-10 20:50:00",0.2,0.4,4.4,3.2,6.7,317,1018,18,17.1
"2024-06-10 20:40:00",0.2,0.4,4.3,4.4,8.3,307,1018,18,17.2
"2024-06-10 20:30:00",0.2,0.4,4.2,4.4,8.3,310,1018,18,17.3
"2024-06-10 20:20:00",0.2,0.4,4,4.2,7.8,311,1018,18.3,17.3
"2024-06-10 20:10:00",0.2,0.4,4,4.7,10,317,1018,18.3,17.4
"2024-06-10 20:00:00",0.2,0.4,4,4.7,8.6,314,1018,18.3,17.5
"2024-06-10 19:50:00",0.2,0.5,3.9,5.4,10.6,310,1018,18.2,17.6
"2024-06-10 19:40:00",0.2,0.5,3.8,5,10.8,312,1018,18.2,17.8
"2024-06-10 19:30:00",0.2,0.5,3.7,5,9.6,309,1018,18.2,17.9
"2024-06-10 19:20:00",0.2,0.3,3.7,6.5,11.2,308,1018,18.2,17.9
"2024-06-10 19:10:00",0.2,0.3,3.7,7.4,12.5,308,1018,18.2,18
"2024-06-10 19:00:00",0.2,0.4,3.8,6.8,13.2,304,1018,18.2,18.2
"2024-06-10 18:50:00",0.2,0.4,4,5.6,13.2,307,1018,18.2,18.3
"2024-06-10 18:40:00",0.2,0.4,4.2,8.1,14.4,281,1018,18.2,18.3
"2024-06-10 18:30:00",0.2,0.4,4.2,8.2,14.3,285,1018,18.2,18.3
"2024-06-10 18:20:00",0.2,0.4,4.3,8.4,14,281,1018,18.1,18.3
"2024-06-10 18:10:00",0.2,0.4,4.3,9.3,14.7,280,1018,18.1,18.2
"2024-06-10 18:00:00",0.2,0.3,4.7,8.6,14,283,1018,18.1,18.3
"2024-06-10 17:50:00",0.1,0.2,5,9,15.2,284,1018,18.4,18.2
"2024-06-10 17:40:00",0.1,0.2,4.9,9.6,14.3,284,1018,18.4,18.2
"2024-06-10 17:30:00",0.1,0.2,4.8,8.6,13.7,283,1018,18.4,18.2
"2024-06-10 17:20:00",0.1,0.2,4.9,9.5,17.8,283,1018,18.5,18.2
"2024-06-10 17:10:00",0.1,0.2,4.8,9.2,16.3,282,1018,18.5,18.2
"2024-06-10 17:00:00",0.1,0.2,4.9,7.7,12.6,256,1018,18.5,18
"2024-06-10 16:50:00",0.1,0.2,4.9,8.1,11.9,254,1018,18.6,17.7
"2024-06-10 16:40:00",0.1,0.2,4.9,7.4,14,279,1018,18.6,17.8
"2024-06-10 16:30:00",0.1,0.2,4.6,7.5,13.1,280,1018,18.6,17.9
"2024-06-10 16:20:00",0.1,0.3,4.4,9.1,16.2,275,1018,18.8,18
"2024-06-10 16:10:00",0.2,0.3,4.5,8.2,14.7,269,1018,18.8,18.2
"2024-06-10 16:00:00",0.2,0.4,4.3,8.9,14.8,268,1018,18.8,18.1
"2024-06-10 15:50:00",0.2,0.4,4.1,9.1,14.5,271,1018,19,18.2
"2024-06-10 15:40:00",0.2,0.4,3.7,9.3,15.2,277,1018,19,18.2
"2024-06-10 15:30:00",0.2,0.4,3.3,10.1,16.3,285,1018,19,18.1
"2024-06-10 15:20:00",0.3,0.5,3.1,11.8,18.3,282,1018,19.1,18.1
"2024-06-10 15:10:00",0.3,0.5,3,8.6,15.4,277,1018,19.1,18.2
"2024-06-10 15:00:00",0.3,0.5,2.9,9,15.4,267,1018,19.1,18.1
"2024-06-10 14:50:00",0.3,0.5,2.9,8.5,14.4,271,1018,18.6,18.3
"2024-06-10 14:40:00",0.3,0.5,2.9,7.8,15,274,1018,18.6,18.1
"2024-06-10 14:30:00",0.3,0.5,3,10.2,16,270,1018,18.6,17.9
"2024-06-10 14:20:00",0.4,0.6,3.1,11.1,18.1,277,1018,18.4,17.9
"2024-06-10 14:10:00",0.4,0.6,3.3,9.9,16.7,277,1018,18.4,18.2
"2024-06-10 14:00:00",0.4,0.6,3.3,10.9,19.3,275,1018,18.4,18.2
"2024-06-10 13:50:00",0.4,0.7,3.2,9.9,16.9,279,1018,18.2,18.2
"2024-06-10 13:40:00",0.4,0.7,3.2,10,16.6,279,1018,18.2,18.4
"2024-06-10 13:30:00",0.4,0.7,3.3,8.9,16.6,270,1018,18.2,18.6
"2024-06-10 13:20:00",0.4,0.7,3.2,6.6,16.9,287,1018,18,18.6
"2024-06-10 13:10:00",0.4,0.6,3.2,9.3,17,286,1018,18,18.1
"2024-06-10 13:00:00",0.3,0.6,3.2,10.8,18.4,278,1018,18,18.1
"2024-06-10 12:50:00",0.3,0.6,3.2,10.6,18.5,278,1018,17.8,18.2
"2024-06-10 12:40:00",0.3,0.7,3.4,10.1,18.6,282,1018,17.8,18.4
"2024-06-10 12:30:00",0.4,0.7,3.5,5.2,12.9,304,1018,17.8,19
"2024-06-10 12:20:00",0.4,0.7,3.6,8.7,18.1,296,1018,17.5,18.7
"2024-06-10 12:10:00",0.4,0.6,3.7,8.3,17.2,294,1018,17.5,18.6
"2024-06-10 12:00:00",0.4,0.6,3.7,6.2,12.8,310,1018,17.5,18.9
"2024-06-10 11:50:00",0.3,0.6,3.8,6.2,13.8,310,1018,17.2,18.6
"2024-06-10 11:40:00",0.3,0.6,4,7.5,17.7,289,1018,17.2,18.6
"2024-06-10 11:30:00",0.3,0.6,4.1,7.3,15,292,1018,17.2,18.3
"2024-06-10 11:20:00",0.3,0.6,4.1,8,18.8,301,1018,17.2,18.2
"2024-06-10 11:10:00",0.3,0.6,4.2,7.7,13.5,306,1018,17.2,18.1
"2024-06-10 11:00:00",0.3,0.6,4.3,7.2,13.6,299,1018,17.2,18.2
"2024-06-10 10:50:00",0.3,0.6,4.4,7.9,16.5,309,1018,17.4,18
"2024-06-10 10:40:00",0.3,0.6,4.4,8.1,16.1,303,1018,17.4,17.7
"2024-06-10 10:30:00",0.3,0.6,4.4,9.7,17.8,313,1018,17.4,17.7
"2024-06-10 10:20:00",0.3,0.6,4.3,8.1,15.6,311,1018,17.9,17.8
"2024-06-10 10:10:00",0.3,0.6,4.3,7.8,15.4,319,1018,17.9,18
"2024-06-10 10:00:00",0.3,0.5,4.3,8.5,18,314,1018,17.9,17.7
"2024-06-10 09:50:00",0.3,0.5,4.4,7.8,13.9,299,1018,17.6,18.1
"2024-06-10 09:40:00",0.3,0.4,4.6,5.7,12.5,331,1018,17.6,17.9
"2024-06-10 09:30:00",0.3,0.4,4.8,6.1,11.8,325,1018,17.6,17.9
"2024-06-10 09:20:00",0.2,0.5,4.9,5.3,11.2,341,1017,17.9,17.8
"2024-06-10 09:10:00",0.2,0.5,5.1,6.5,14.2,341,1018,17.9,17.4
"2024-06-10 09:00:00",0.2,0.5,5.2,6.2,12.1,318,1018,17.9,17.4
"2024-06-10 08:50:00",0.2,0.4,5.1,6.6,13.1,345,1017,17.8,17.3
"2024-06-10 08:40:00",0.2,0.4,5,7.7,12.8,349,1017,17.8,17.2
"2024-06-10 08:30:00",0.2,0.4,4.7,6.4,12.7,333,1017,17.8,17.3
"2024-06-10 08:20:00",0.3,0.6,4.9,6.8,11.6,316,1017,17.7,17.3
"2024-06-10 08:10:00",0.3,0.6,4.9,6.4,11.9,330,1017,17.7,17
"2024-06-10 08:00:00",0.3,0.6,5.2,6.3,10.4,340,1017,17.7,17.1
"2024-06-10 07:50:00",0.3,0.5,5.1,4.8,10.3,325,1017,17.6,17.3
"2024-06-10 07:40:00",0.2,0.4,5.1,5.6,12.1,345,1017,17.6,16.9
"2024-06-10 07:30:00",0.2,0.4,5.1,5.6,9.9,345,1017,17.6,16.5
"2024-06-10 07:20:00",0.2,0.4,5.1,5.7,10.2,341,1017,17.5,16.5
"2024-06-10 07:10:00",0.2,0.4,5,5,8.8,358,1017,17.5,16.2
"2024-06-10 07:00:00",0.2,0.4,4.9,4.8,8,345,1017,17.5,15.9
"2024-06-10 06:50:00",0.2,0.4,4.9,5.6,9,339,1017,17.5,15.6
"2024-06-10 06:40:00",0.2,0.4,4.8,5.1,9.8,347,1017,17.5,15.6
"2024-06-10 06:30:00",0.2,0.4,4.9,4.7,9,14,1016,17.5,15.5
"2024-06-10 06:20:00",0.2,0.4,4.9,6.2,9.6,23,1016,17.4,15.4
"2024-06-10 06:10:00",0.2,0.4,4.8,6.1,10.2,21,1016,17.4,15.3
"2024-06-10 06:00:00",0.2,0.5,4.8,5.5,9.6,3,1016,17.4,15.2
"2024-06-10 05:50:00",0.2,0.5,4.8,6.8,10.7,346,1016,17.6,15
"2024-06-10 05:40:00",0.2,0.5,4.9,7.2,12.1,349,1016,17.6,14.9
"2024-06-10 05:30:00",0.2,0.4,4.9,7.7,11.4,345,1016,17.6,14.8
"2024-06-10 05:20:00",0.2,0.3,4.9,6.6,12.5,348,1016,17.8,14.7
"2024-06-10 05:10:00",0.2,0.3,4.9,6.6,11,350,1016,17.8,14.5
"2024-06-10 05:00:00",0.1,0.3,5,6.4,10.5,348,1016,17.8,14.3
"2024-06-10 04:50:00",0.1,0.3,5.2,5.7,10.2,350,1016,17.9,14.4
"2024-06-10 04:40:00",0.1,0.3,5.3,5.2,11.3,358,1016,17.9,14.6
"2024-06-10 04:30:00",0.2,0.3,5.3,4.9,7.9,21,1016,17.9,14.7
"2024-06-10 04:20:00",0.2,0.3,5.1,3.8,6.3,16,1016,17.9,14.8
"2024-06-10 04:10:00",0.2,0.3,5,3.3,6.3,13,1016,17.9,15
"2024-06-10 04:00:00",0.2,0.3,4.8,3.9,7.7,356,1016,17.9,14.9
"2024-06-10 03:50:00",0.2,0.3,4.4,4.9,9.7,358,1016,18,15.1
"2024-06-10 03:40:00",0.2,0.4,4.2,6.6,11.4,357,1015,18,15.2
"2024-06-10 03:30:00",0.2,0.4,3.9,7.1,12.2,357,1015,18,15.3
"2024-06-10 03:20:00",0.2,0.4,3.7,7.8,12.5,352,1015,17.9,15.4
"2024-06-10 03:10:00",0.2,0.4,3.6,7.9,14,356,1015,17.9,15.5
"2024-06-10 03:00:00",0.2,0.4,3.7,8.9,13.1,355,1015,17.9,15.5
"2024-06-10 02:50:00",0.2,0.4,4,8.6,13,351,1015,18,15.5
"2024-06-10 02:40:00",0.2,0.4,4.2,7.5,13.7,3,1015,18,15.9
"2024-06-10 02:30:00",0.2,0.4,4.2,6.6,11.7,4,1015,18,15.9
"2024-06-10 02:20:00",0.2,0.4,4.1,6.8,13.5,8,1015,18,16
"2024-06-10 02:10:00",0.2,0.4,4.2,7.1,12.2,357,1016,18,16.1
"2024-06-10 02:00:00",0.2,0.4,4.3,7.4,13.4,358,1015,18,16.2
"2024-06-10 01:50:00",0.2,0.4,4.6,7.7,13.2,356,1015,18,16.3
"2024-06-10 01:40:00",0.2,0.4,4.5,7.6,12.1,356,1016,18,16.5
"2024-06-10 01:30:00",0.2,0.4,4.6,7.9,12.6,354,1016,18,16.6
"2024-06-10 01:20:00",0.2,0.4,4.3,8.2,12.7,351,1016,18,16.7
"2024-06-10 01:10:00",0.2,0.4,4.1,7.8,12.3,351,1016,18,16.9
"2024-06-10 01:00:00",0.2,0.3,4,8.4,13.6,353,1016,18,17.1
"2024-06-10 00:50:00",0.2,0.3,4,7.7,13.1,353,1016,17.9,17.3
"2024-06-10 00:40:00",0.2,0.3,4,6.8,11.9,3,1016,17.9,17.6
"2024-06-10 00:30:00",0.2,0.4,3.8,8.1,14,353,1016,17.9,17.8
"2024-06-10 00:20:00",0.2,0.4,4,7.8,12.7,360,1016,17.6,18
"2024-06-10 00:10:00",0.2,0.4,4,7.7,12.8,355,1016,17.6,18
"2024-06-10 00:00:00",0.2,0.4,4.1,8.4,13.1,350,1016,17.6,17.9
"2024-06-09 23:50:00",0.2,0.4,4.1,8,11.8,347,1016,17.3,17.7
"2024-06-09 23:40:00",0.2,0.4,4.2,7.8,13.2,345,1015,17.3,17.5
"2024-06-09 23:30:00",0.3,0.4,4.2,7.4,11.5,341,1015,17.3,17.3
"2024-06-09 23:20:00",0.3,0.5,4.3,6.9,11.5,341,1015,17.1,17.4
"2024-06-09 23:10:00",0.3,0.5,4.4,7.2,11.4,335,1015,17.1,17.3
"2024-06-09 23:00:00",0.3,0.5,4.6,7.5,13.8,335,1015,17.1,17.3
"2024-06-09 22:50:00",0.3,0.6,4.7,7.8,11.2,338,1015,17,17.3
"2024-06-09 22:40:00",0.3,0.6,4.8,6.8,11,335,1015,17,17.3
"2024-06-09 22:30:00",0.4,0.6,4.8,5.5,9.6,330,1015,17,17.3
"2024-06-09 22:20:00",0.4,0.6,4.9,5.1,9.5,323,1015,16.9,17.4
"2024-06-09 22:10:00",0.4,0.6,4.9,5.6,10.3,321,1015,16.9,17.5
"2024-06-09 22:00:00",0.4,0.7,5,6,10.4,321,1015,16.9,17.5
"2024-06-09 21:50:00",0.4,0.7,5.1,5.9,9.9,319,1015,17.3,17.5
"2024-06-09 21:40:00",0.5,0.7,5.2,6,11,319,1015,17.3,17.5
"2024-06-09 21:30:00",0.5,1,5.2,6.6,10.8,317,1015,17.3,17.6
"2024-06-09 21:20:00",0.5,1,5.2,5.8,10.6,317,1015,16.8,17.7
"2024-06-09 21:10:00",0.5,1,5,6.9,12.2,317,1016,16.8,17.8
"2024-06-09 21:00:00",0.4,0.8,4.9,7.4,13.8,317,1016,16.8,17.9
"2024-06-09 20:50:00",0.4,0.8,4.9,6.9,12.6,314,1016,17.6,18
"2024-06-09 20:40:00",0.4,0.8,4.9,7.9,15.4,317,1015,17.6,18.1
"2024-06-09 20:30:00",0.4,0.6,4.5,7.7,12.6,315,1015,17.6,18.1
"2024-06-09 20:20:00",0.4,0.6,4.4,7.4,13.7,317,1015,18.2,18.2
"2024-06-09 20:10:00",0.4,0.7,4.3,7.7,12.9,317,1015,18.2,18.3
"2024-06-09 20:00:00",0.4,0.7,4.2,7.6,13.8,315,1015,18.2,18.5
"2024-06-09 19:50:00",0.4,0.7,4.2,9.4,16.3,315,1015,18.2,18.6
"2024-06-09 19:40:00",0.4,0.7,4.2,8.9,15.1,318,1014,18.2,18.7
"2024-06-09 19:30:00",0.4,0.6,4.3,8.6,15.3,313,1014,18.2,18.9
"2024-06-09 19:20:00",0.4,0.6,4.2,9.9,16.9,318,1014,18.3,19
"2024-06-09 19:10:00",0.4,0.6,4.1,8.1,15,318,1014,18.3,19.2
"2024-06-09 19:00:00",0.4,0.6,4.1,9.6,19.9,314,1014,18.3,19.3
"2024-06-09 18:50:00",0.3,0.5,3.9,10,17.4,316,1014,18.4,19.4
"2024-06-09 18:40:00",0.3,0.5,3.7,11,17.5,319,1014,18.4,19.5
"2024-06-09 18:30:00",0.3,0.6,3.6,11,19.2,312,1014,18.4,19.7
"2024-06-09 18:20:00",0.3,0.6,3.6,12.1,19.4,317,1014,18,19.8
"2024-06-09 18:10:00",0.3,0.6,3.7,10.2,17.2,316,1014,18,20.1
"2024-06-09 18:00:00",0.3,0.5,3.7,9.3,21.6,312,1014,18,20.4
"2024-06-09 17:50:00",0.3,0.5,3.7,9.5,17.6,308,1014,18.3,20.6
"2024-06-09 17:40:00",0.2,0.4,3.7,10.1,19.6,313,1014,18.3,20.6
"2024-06-09 17:30:00",0.2,0.4,3.9,10,16.4,309,1014,18.3,20.8
"2024-06-09 17:20:00",0.2,0.4,3.9,9.9,18.7,307,1014,18.2,20.9
"2024-06-09 17:10:00",0.2,0.3,4,8.2,16,314,1014,18.2,21.2
"2024-06-09 17:00:00",0.2,0.3,4.1,8.7,16,305,1014,18.2,21.3
"2024-06-09 16:50:00",0.2,0.3,4.1,9.1,16.1,314,1014,18.6,21.3
"2024-06-09 16:40:00",0.2,0.3,3.8,9.1,17.4,311,1013,18.6,21.5
"2024-06-09 16:30:00",0.2,0.3,3.7,9,15.7,320,1013,18.6,21.6
"2024-06-09 16:20:00",0.2,0.3,3.8,7.2,13.5,299,1013,18.5,22.1
"2024-06-09 16:10:00",0.2,0.3,3.9,8.4,15.8,304,1013,18.5,21.9
"2024-06-09 16:00:00",0.2,0.3,3.8,9.9,17.9,318,1013,18.5,21.7
"2024-06-09 15:50:00",0.2,0.3,3.7,11,19.5,312,1013,18.7,21.7
"2024-06-09 15:40:00",0.2,0.3,3.5,8.9,17.1,315,1013,18.7,21.8
"2024-06-09 15:30:00",0.2,0.4,3.4,8.5,16.2,316,1013,18.7,21.9
"2024-06-09 15:20:00",0.2,0.4,3.4,10.3,18.5,313,1013,18.7,21.8
"2024-06-09 15:10:00",0.2,0.4,3.3,9.8,18.5,311,1013,18.7,21.8
"2024-06-09 15:00:00",0.2,0.4,3.1,9.7,18.6,315,1013,18.7,22.1
"2024-06-09 14:50:00",0.3,0.4,2.9,9.8,18.8,311,1013,18.6,22.1
"2024-06-09 14:40:00",0.3,0.7,2.9,11.1,19,309,1013,18.6,22.1
"2024-06-09 14:30:00",0.4,0.8,2.9,8.3,19,301,1013,18.6,22.5
"2024-06-09 14:20:00",0.4,0.8,2.9,7.6,14.3,331,1013,18.4,22.3
"2024-06-09 14:10:00",0.5,0.9,3,8.8,18.1,339,1013,18.4,22.3
"2024-06-09 14:00:00",0.5,1,3.1,8,14.6,347,1013,18.4,22.3
"2024-06-09 13:50:00",0.6,1,3.1,7.4,16.9,341,1013,18.5,22
"2024-06-09 13:40:00",0.6,1,3.2,7.5,15.7,359,1013,18.5,22.3
"2024-06-09 13:30:00",0.5,1,3.2,7.4,16.7,358,1013,18.5,22.1
"2024-06-09 13:20:00",0.4,0.9,3.2,8.6,16.9,342,1013,18.5,21.8
"2024-06-09 13:10:00",0.3,0.6,3.4,8.6,16.3,353,1013,18.5,22
"2024-06-09 13:00:00",0.3,0.4,3.5,9.4,17.7,337,1013,18.5,21.9
"2024-06-09 12:50:00",0.2,0.4,3.4,8,15.4,342,1013,18.2,21.8
"2024-06-09 12:40:00",0.2,0.4,3.1,7.6,16.9,338,1013,18.2,21.9
"2024-06-09 12:30:00",0.2,0.4,3.1,9.1,16.4,313,1013,18.2,21.8
"2024-06-09 12:20:00",0.2,0.3,3.2,7.8,17.1,334,1013,18,21.8
"2024-06-09 12:10:00",0.2,0.3,3.2,7.7,14.5,334,1013,18,21.6
"2024-06-09 12:00:00",0.2,0.3,3.2,8.8,17,341,1013,18,21.4
"2024-06-09 11:50:00",0.2,0.3,3.3,6,13.8,354,1013,17.5,21.4
"2024-06-09 11:40:00",0.1,0.3,3.3,6.7,13.4,337,1013,17.5,21.4
"2024-06-09 11:30:00",0.1,0.2,3.5,7.1,14.6,345,1013,17.5,21.4
"2024-06-09 11:20:00",0.1,0.2,3.5,6.9,13.8,348,1013,17.2,21.5
"2024-06-09 11:10:00",0.1,0.2,3.5,7.2,14.2,15,1013,17.2,21.2
"2024-06-09 11:00:00",0.1,0.2,3.6,9,14.4,359,1013,17.2,21
"2024-06-09 10:50:00",0.2,0.3,3.7,7.8,16.7,356,1013,17.1,21
"2024-06-09 10:40:00",0.2,0.3,3.8,7.8,15,350,1013,17.1,20.9
"2024-06-09 10:30:00",0.2,0.3,4.1,8.4,17.5,348,1013,17.1,20.8
"2024-06-09 10:20:00",0.2,0.2,4.3,8.3,17.2,6,1013,16.8,20.6
"2024-06-09 10:10:00",0.2,0.3,4.4,9.5,15.8,337,1013,16.8,20.4
"2024-06-09 10:00:00",0.2,0.3,4.4,7.8,14.7,351,1013,16.8,20.4
"2024-06-09 09:50:00",0.2,0.3,4.6,8.3,15.4,353,1013,17.2,20.1
"2024-06-09 09:40:00",0.2,0.3,4.9,8.5,18.5,13,1013,17.2,20
"2024-06-09 09:30:00",0.2,0.3,5.1,8.1,16.3,4,1013,17.2,19.6
"2024-06-09 09:20:00",0.2,0.4,5,8.8,13.6,345,1013,17.1,19.1
"2024-06-09 09:10:00",0.2,0.4,5,8,14.3,356,1013,17.1,19.3
"2024-06-09 09:00:00",0.2,0.4,5.1,8.2,14.6,358,1013,17.1,19
"2024-06-09 08:50:00",0.2,0.3,5.2,8.8,15.1,346,1013,17.1,18.9
"2024-06-09 08:40:00",0.2,0.3,4.9,7,12.8,360,1013,17.1,19
"2024-06-09 08:30:00",0.2,0.3,4.4,7.9,15,2,1013,17.1,18.7
"2024-06-09 08:20:00",0.2,0.3,4.5,7.4,15.7,12,1013,17.5,18.7
"2024-06-09 08:10:00",0.2,0.3,4.6,8.5,14.3,348,1013,17.5,18.3
"2024-06-09 08:00:00",0.2,0.3,4.7,6.8,13.5,12,1013,17.5,18.5
"2024-06-09 07:50:00",0.2,0.5,4.8,7.1,12,0,1013,17.5,18.1
"2024-06-09 07:40:00",0.2,0.5,4.8,7.7,14.4,4,1013,17.5,17.9
"2024-06-09 07:30:00",0.2,0.5,5,8.3,14.6,8,1013,17.5,17.7
"2024-06-09 07:20:00",0.2,0.4,5.4,6.8,12.6,19,1012,17.4,17.7
"2024-06-09 07:10:00",0.2,0.2,5.3,9.3,15.6,28,1012,17.4,17.2
"2024-06-09 07:00:00",0.2,0.3,5.4,9.8,17.6,27,1012,17.4,17
"2024-06-09 06:50:00",0.2,0.3,5.2,8.5,14.1,26,1012,17.4,16.8
"2024-06-09 06:40:00",0.2,0.3,5.4,8.1,14.5,19,1012,17.4,16.4
"2024-06-09 06:30:00",0.1,0.2,5.3,6.7,10.9,12,1012,17.4,16.3
"2024-06-09 06:20:00",0.1,0.2,5.3,7.1,12,3,1012,17.4,16.4
"2024-06-09 06:10:00",0.1,0.2,5,7.7,13.5,3,1012,17.4,16.5
"2024-06-09 06:00:00",0.1,0.3,4.6,6.4,11.2,6,1012,17.4,16.6
"2024-06-09 05:50:00",0.1,0.3,4.5,7.2,11.9,6,1012,17.3,16.5
"2024-06-09 05:40:00",0.1,0.3,4.6,8,13.1,18,1012,17.3,16.4
"2024-06-09 05:30:00",0.1,0.2,5,7.8,12.8,22,1012,17.3,16.4
"2024-06-09 05:20:00",0.1,0.2,5.1,8.6,14.2,23,1012,17.5,16.4
"2024-06-09 05:10:00",0.1,0.2,5.2,8.9,14.6,24,1012,17.5,16.4
"2024-06-09 05:00:00",0.1,0.2,5.3,9.2,14.6,30,1012,17.5,16.4
"2024-06-09 04:50:00",0.1,0.2,5.5,10.9,16.3,28,1012,17.8,16.4
"2024-06-09 04:40:00",0.1,0.2,5.5,9.1,14.3,25,1012,17.8,16.4
"2024-06-09 04:30:00",0.1,0.2,5,9.2,14.3,24,1012,17.8,16.5
"2024-06-09 04:20:00",0.1,0.2,4.8,9.2,13.7,27,1012,18,16.6
"2024-06-09 04:10:00",0.1,0.2,4.8,7.4,12,19,1012,18,16.7
"2024-06-09 04:00:00",0.1,0.2,4.6,8.4,14.9,17,1012,18,16.8
"2024-06-09 03:50:00",0.1,0.2,4.8,7.8,14.7,12,1012,18,16.9
"2024-06-09 03:40:00",0.1,0.2,4.6,8.3,15.5,17,1012,18,17
"2024-06-09 03:30:00",0.1,0.2,4.7,8.8,15.5,17,1012,18,17.1
"2024-06-09 03:20:00",0.1,0.2,4.7,8.9,15,26,1013,18,17.1
"2024-06-09 03:10:00",0.1,0.2,4.7,9,13.5,26,1013,18,17.1
"2024-06-09 03:00:00",0.1,0.2,4.2,7.4,12.7,21,1013,18,17.1
"2024-06-09 02:50:00",0.1,0.2,3.9,9.4,14.9,26,1013,18,17.1
"2024-06-09 02:40:00",0.2,0.2,3.6,8.4,14.2,20,1013,18,17.2
"2024-06-09 02:30:00",0.2,0.3,3.5,7.8,13.3,7,1013,18,17.2
"2024-06-09 02:20:00",0.2,0.3,3.4,7.7,14.8,8,1013,18.1,17.3
"2024-06-09 02:10:00",0.2,0.3,3.5,7.9,14.5,12,1013,18.1,17.4
"2024-06-09 02:00:00",0.2,0.3,3.7,8.1,15.6,13,1013,18.1,17.5
"2024-06-09 01:50:00",0.2,0.3,3.8,8.1,16.5,9,1013,18.1,17.6
"2024-06-09 01:40:00",0.2,0.3,3.7,8.7,14.8,16,1013,18.1,17.8
"2024-06-09 01:30:00",0.2,0.3,3.6,9.4,18,19,1013,18.1,18
"2024-06-09 01:20:00",0.2,0.3,3.5,7.5,14.3,17,1013,18.1,18.1
"2024-06-09 01:10:00",0.2,0.3,3.5,7.8,13.3,24,1013,18.1,18.3
"2024-06-09 01:00:00",0.2,0.3,3.4,7,12.6,13,1013,18.1,18.4
"2024-06-09 00:50:00",0.2,0.3,3.5,9.4,17.7,25,1013,18.1,18.5
"2024-06-09 00:40:00",0.2,0.3,3.5,8.1,17.4,18,1014,18.1,18.7
"2024-06-09 00:30:00",0.1,0.3,3.5,8.8,15.3,20,1014,18.1,18.9
"2024-06-09 00:20:00",0.1,0.3,3.5,8.5,14.5,4,1014,18,19.2
"2024-06-09 00:10:00",0.1,0.2,3.3,8.1,14.4,352,1014,18,19.4
"2024-06-09 00:00:00",0.1,0.2,3.2,6.2,10.8,1,1014,18,19.8
"2024-06-08 23:50:00",0.1,0.2,3.4,6.2,10.9,349,1014,17.6,19.8
"2024-06-08 23:40:00",0.1,0.2,3.5,7.6,12.4,340,1013,17.6,19.2
"2024-06-08 23:30:00",0.1,0.2,3.7,7.3,10.6,335,1014,17.6,19.2
"2024-06-08 23:20:00",0.1,0.2,3.8,6.6,9.9,337,1014,17.4,19.3
"2024-06-08 23:10:00",0.1,0.2,3.8,7,10.8,344,1014,17.4,19.3
"2024-06-08 23:00:00",0.1,0.2,4,6.4,10.4,347,1014,17.4,19.2
"2024-06-08 22:50:00",0.1,0.2,4.2,5.8,9.6,342,1014,17.1,19.3
"2024-06-08 22:40:00",0.1,0.2,4.3,6.5,10,344,1014,17.1,19.3
"2024-06-08 22:30:00",0.1,0.2,4.3,6.7,10.2,340,1014,17.1,19.2
"2024-06-08 22:20:00",0.1,0.3,4.4,6.4,9.6,344,1014,16.9,19
"2024-06-08 22:10:00",0.1,0.3,4.4,5.7,9.8,343,1014,16.9,19
"2024-06-08 22:00:00",0.1,0.3,4.3,5.3,8.7,346,1014,16.9,19.1
"2024-06-08 21:50:00",0.1,0.2,4.3,4,7.2,356,1014,16.5,19.3
"2024-06-08 21:40:00",0.1,0.2,4.4,5.6,10.2,340,1014,16.5,19.3
"2024-06-08 21:30:00",0.1,0.2,4.6,6.7,10.5,339,1014,16.5,19.3
"2024-06-08 21:20:00",0.1,0.2,5,7.1,11.6,338,1014,16.8,19.4
"2024-06-08 21:10:00",0.2,0.3,5.3,6.2,9.6,333,1014,16.8,19.5
"2024-06-08 21:00:00",0.2,0.4,5.4,6.5,9.9,333,1014,16.8,19.6
"2024-06-08 20:50:00",0.2,0.4,5.3,6.3,9.9,332,1014,17,19.7
"2024-06-08 20:40:00",0.2,0.4,5.3,4.8,8.9,321,1014,17,19.9
"2024-06-08 20:30:00",0.2,0.3,5.2,5.8,9,333,1014,17,20.1
"2024-06-08 20:20:00",0.2,0.3,5.3,4.9,8.7,334,1014,17,20.3
"2024-06-08 20:10:00",0.2,0.3,5.2,5.6,9.1,339,1014,17,20.7
"2024-06-08 20:00:00",0.2,0.4,5.3,5.3,9,350,1014,17,20.9
"2024-06-08 19:50:00",0.2,0.4,5.2,5.7,8.5,345,1014,17.8,20.9
"2024-06-08 19:40:00",0.2,0.4,5.1,4.9,7.5,31,1014,17.8,21.1
"2024-06-08 19:30:00",0.2,0.3,5,4.8,7.7,39,1014,17.8,21.2
"2024-06-08 19:20:00",0.2,0.3,4.8,5.1,8.4,32,1014,18,21.4
"2024-06-08 19:10:00",0.2,0.3,4.7,7.3,11.4,29,1013,18,21.5
"2024-06-08 19:00:00",0.2,0.3,4.6,7.4,11.6,25,1013,18,21.7
"2024-06-08 18:50:00",0.2,0.3,4.5,8,13,27,1013,18,22
"2024-06-08 18:40:00",0.2,0.3,4.5,8.8,13.9,24,1013,18,22.1
"2024-06-08 18:30:00",0.2,0.5,4.5,9.3,13.5,26,1013,18,22.1
"2024-06-08 18:20:00",0.2,0.5,4.7,8.9,15.1,29,1013,18,22.2
"2024-06-08 18:10:00",0.2,0.5,4.9,8.7,15.5,22,1013,18,22.4
"2024-06-08 18:00:00",0.1,0.2,4.9,8.1,14.6,23,1013,18,22.4
"2024-06-08 17:50:00",0.1,0.2,4.8,7.7,15.8,21,1013,18,22.5
"2024-06-08 17:40:00",0.1,0.2,4.3,9.4,15.5,22,1013,18,22.4
"2024-06-08 17:30:00",0.1,0.2,4.1,10.1,18.1,19,1013,18,22.3
"2024-06-08 17:20:00",0.2,0.5,4.2,10.3,18.2,28,1013,17.7,22.4
"2024-06-08 17:10:00",0.2,0.5,4.3,11.2,17.7,29,1013,17.7,22.4
"2024-06-08 17:00:00",0.2,0.5,4.4,9.1,16.5,22,1013,17.7,22.7
"2024-06-08 16:50:00",0.1,0.2,4.9,9.1,15.7,31,1013,17.6,22.7
"2024-06-08 16:40:00",0.1,0.2,4.9,8.9,16.5,35,1013,17.6,22.6
"2024-06-08 16:30:00",0.1,0.2,4.7,10,15.7,42,1013,17.6,22.3
"2024-06-08 16:20:00",0.1,0.2,4.4,10.4,15.5,38,1013,17.9,22.5
"2024-06-08 16:10:00",0.1,0.2,4.3,9.9,16.7,37,1013,17.9,22.4
"2024-06-08 16:00:00",0.1,0.2,4.6,10.5,15.6,36,1013,17.9,22.1
"2024-06-08 15:50:00",0.1,0.3,4.8,11.9,17.7,39,1013,18.2,22
"2024-06-08 15:40:00",0.1,0.3,4.5,9.6,15.9,34,1013,18.2,22.2
"2024-06-08 15:30:00",0.1,0.3,4.4,10.2,17.5,37,1013,18.2,22.3
"2024-06-08 15:20:00",0.1,0.2,4.4,9.1,17.8,37,1013,18.2,22.5
"2024-06-08 15:10:00",0.1,0.2,4.3,10.9,16.5,33,1013,18.2,22.4
"2024-06-08 15:00:00",0.1,0.2,4.5,11,17.1,25,1013,18.2,22.2
"2024-06-08 14:50:00",0.1,0.2,4.4,10.5,17,31,1013,18.5,22.2
"2024-06-08 14:40:00",0.1,0.2,4.4,10.8,16.8,25,1013,18.5,22.2
"2024-06-08 14:30:00",0.1,0.2,3.9,10.8,17.5,28,1013,18.5,22.2
"2024-06-08 14:20:00",0.1,0.2,3.8,10.8,17,23,1013,18.6,22.2
"2024-06-08 14:10:00",0.2,0.4,3.6,10.9,17.1,25,1013,18.6,22.2
"2024-06-08 14:00:00",0.2,0.4,3.5,11.4,17.9,39,1014,18.6,22.2
"2024-06-08 13:50:00",0.2,0.4,3.3,11.1,18.4,41,1014,18.4,22.1
"2024-06-08 13:40:00",0.2,0.4,3.1,10.8,17.4,38,1014,18.4,22
"2024-06-08 13:30:00",0.2,0.2,3.2,9.6,16.6,26,1014,18.4,22.1
"2024-06-08 13:20:00",0.2,0.2,3.2,9.3,17.2,11,1014,18.4,21.9
"2024-06-08 13:10:00",0.2,0.2,3.1,10.5,19.2,23,1014,18.4,21.7
"2024-06-08 13:00:00",0.2,0.3,3,11.3,17.6,27,1014,18.4,21.5
"2024-06-08 12:50:00",0.2,0.3,2.9,10.2,16.5,27,1014,18.2,21.3
"2024-06-08 12:40:00",0.2,0.3,3.2,10.4,16.3,26,1014,18.2,21
"2024-06-08 12:30:00",0.2,0.3,3.4,10.2,15.2,28,1014,18.2,20.9
"2024-06-08 12:20:00",0.2,0.3,3.3,9.6,16.4,31,1015,18.2,20.9
"2024-06-08 12:10:00",0.1,0.3,3.2,8.9,14.6,25,1014,18.2,20.8
"2024-06-08 12:00:00",0.1,0.2,3,10.5,16.4,30,1014,18.2,20.4
"2024-06-08 11:50:00",0.1,0.2,2.8,10.2,16.5,29,1014,18,20.3
"2024-06-08 11:40:00",0.1,0.2,2.9,8.3,14.3,28,1014,18,20.2
"2024-06-08 11:30:00",0.1,0.2,2.9,9.8,14.9,29,1014,18,20
"2024-06-08 11:20:00",0.1,0.2,3.3,10.2,15.9,28,1014,17.7,19.9
"2024-06-08 11:10:00",0.1,0.2,3.6,6.6,12.9,17,1014,17.7,20.1
"2024-06-08 11:00:00",0.1,0.2,3.5,8.4,14,23,1014,17.7,20
"2024-06-08 10:50:00",0.1,0.2,3.6,7,11.8,9,1014,17.3,20
"2024-06-08 10:40:00",0.1,0.2,3.8,7.6,11.9,354,1014,17.3,20
"2024-06-08 10:30:00",0.1,0.2,4,7.3,12,353,1014,17.3,20.1
"2024-06-08 10:20:00",0.1,0.1,4,7.3,12.1,358,1014,17.1,20.2